| time (UTC) | temp F | wind direction | speed MPH | gust MPH | rain 1hr in | rain 24hr in | rain mn in | humidity % | barometer mb |
| 20260510142030 | 79 | 80 | 0.0 | 2.0 | 0.00 | 0.00 | 0.00 | 44 | 1014.7 |
| 20260510141534 | 79 | 44 | 0.0 | 2.0 | 0.00 | 0.00 | 0.00 | 44 | 1014.6 |
| 20260510141025 | 78 | 106 | 0.0 | 2.0 | 0.00 | 0.00 | 0.00 | 44 | 1014.7 |
| 20260510140524 | 77 | 104 | 0.0 | 1.0 | 0.00 | 0.00 | 0.00 | 46 | 1014.6 |
| 20260510140022 | 77 | 90 | 0.0 | 2.0 | 0.00 | 0.00 | 0.00 | 46 | 1014.7 |
| 20260510135521 | 76 | 342 | 0.0 | 2.0 | 0.00 | 0.00 | 0.00 | 48 | 1014.7 |
| 20260510135021 | 75 | 342 | 0.0 | 2.0 | 0.00 | 0.00 | 0.00 | 48 | 1014.7 |
| 20260510134518 | 75 | 342 | 0.0 | 2.0 | 0.00 | 0.00 | 0.00 | 49 | 1014.5 |
| 20260510134017 | 74 | 342 | 0.0 | 2.0 | 0.00 | 0.00 | 0.00 | 50 | 1014.6 |
| 20260510133517 | 73 | 342 | 0.0 | 0.0 | 0.00 | 0.00 | 0.00 | 49 | 1014.6 |
| 20260510133014 | 73 | 342 | 0.0 | 2.0 | 0.00 | 0.00 | 0.00 | 46 | 1014.6 |
| 20260510132512 | 72 | 342 | 0.0 | 2.0 | 0.00 | 0.00 | 0.00 | 39 | 1014.6 |
| 20260510132010 | 71 | 342 | 0.0 | 0.0 | 0.00 | 0.00 | 0.00 | 22 | 1014.7 |
| 20260510131509 | 69 | 342 | 0.0 | 0.0 | 0.00 | 0.00 | 0.00 | 6 | 1014.8 |
| 20260510131008 | 68 | 342 | 0.0 | 0.0 | 0.00 | 0.00 | 0.00 | 1 | 1014.8 |
| 20260510130506 | 68 | 342 | 0.0 | 0.0 | 0.00 | 0.00 | 0.00 | 1 | 1014.7 |
| 20260510130005 | 67 | 342 | 0.0 | 0.0 | 0.00 | 0.00 | 0.00 | 1 | 1014.5 |
| 20260510125504 | 66 | 342 | 0.0 | 1.0 | 0.00 | 0.00 | 0.00 | 1 | 1014.4 |
| 20260510125001 | 66 | 342 | 0.0 | 1.0 | 0.00 | 0.00 | 0.00 | 1 | 1014.3 |
| 20260510124605 | 65 | 342 | 0.0 | 1.0 | 0.00 | 0.00 | 0.00 | 1 | 1014.5 |
| 20260510124059 | 64 | 342 | 0.0 | 0.0 | 0.00 | 0.00 | 0.00 | 1 | 1014.4 |
| 20260510123558 | 64 | 342 | 0.0 | 0.0 | 0.00 | 0.00 | 0.00 | 1 | 1014.4 |
| 20260510123056 | 63 | 342 | 0.0 | 0.0 | 0.00 | 0.00 | 0.00 | 1 | 1014.5 |
| 20260510122554 | 62 | 342 | 0.0 | 0.0 | 0.00 | 0.00 | 0.00 | 1 | 1014.4 |
| 20260510122053 | 61 | 342 | 0.0 | 0.0 | 0.00 | 0.00 | 0.00 | 1 | 1014.3 |
| 20260510121551 | 61 | 342 | 0.0 | 0.0 | 0.00 | 0.00 | 0.00 | 1 | 1014.0 |
| 20260510121051 | 60 | 342 | 0.0 | 0.0 | 0.00 | 0.00 | 0.00 | 1 | 1013.9 |
| 20260510120548 | 60 | 342 | 0.0 | 0.0 | 0.00 | 0.00 | 0.00 | 1 | 1013.7 |
| 20260510120047 | 60 | 342 | 0.0 | 0.0 | 0.00 | 0.00 | 0.00 | 1 | 1013.6 |
| 20260510115546 | 59 | 342 | 0.0 | 0.0 | 0.00 | 0.00 | 0.00 | 1 | 1013.5 |
| 20260510115044 | 58 | 342 | 0.0 | 0.0 | 0.00 | 0.00 | 0.00 | 1 | 1013.5 |
| 20260510114543 | 58 | 342 | 0.0 | 0.0 | 0.00 | 0.00 | 0.00 | 1 | 1013.5 |
| 20260510114041 | 57 | 342 | 0.0 | 0.0 | 0.00 | 0.00 | 0.00 | 1 | 1013.4 |
| 20260510113539 | 57 | 342 | 0.0 | 0.0 | 0.00 | 0.00 | 0.00 | 1 | 1013.4 |
| 20260510113040 | 57 | 342 | 0.0 | 0.0 | 0.00 | 0.00 | 0.00 | 1 | 1013.3 |
| 20260510112537 | 57 | 51 | 0.0 | 0.0 | 0.00 | 0.00 | 0.00 | 1 | 1013.2 |
| 20260510112038 | 56 | 51 | 0.0 | 0.0 | 0.00 | 0.00 | 0.00 | 1 | 1013.2 |
| 20260510111534 | 56 | 51 | 0.0 | 0.0 | 0.00 | 0.00 | 0.00 | 1 | 1013.2 |
| 20260510111032 | 56 | 51 | 0.0 | 1.0 | 0.00 | 0.00 | 0.00 | 1 | 1013.1 |
| 20260510110531 | 56 | 51 | 0.0 | 1.0 | 0.00 | 0.00 | 0.00 | 1 | 1013.1 |
| 20260510110034 | 56 | 211 | 0.0 | 0.0 | 0.00 | 0.00 | 0.00 | 1 | 1013.1 |
| 20260510105531 | 56 | 211 | 0.0 | 0.0 | 0.00 | 0.00 | 0.00 | 1 | 1013.1 |
| 20260510105027 | 56 | 211 | 0.0 | 0.0 | 0.00 | 0.00 | 0.00 | 1 | 1013.1 |
| 20260510104525 | 56 | 211 | 0.0 | 0.0 | 0.00 | 0.00 | 0.00 | 1 | 1013.0 |
| 20260510104027 | 57 | 211 | 0.0 | 0.0 | 0.00 | 0.00 | 0.00 | 1 | 1013.0 |
| 20260510103522 | 57 | 211 | 0.0 | 0.0 | 0.00 | 0.00 | 0.00 | 1 | 1012.8 |
| 20260510103024 | 57 | 211 | 0.0 | 0.0 | 0.00 | 0.00 | 0.00 | 1 | 1012.9 |
| 20260510102519 | 57 | 211 | 0.0 | 0.0 | 0.00 | 0.00 | 0.00 | 1 | 1012.7 |
| 20260510102018 | 57 | 211 | 0.0 | 0.0 | 0.00 | 0.00 | 0.00 | 1 | 1012.7 |
| 20260510101518 | 57 | 211 | 0.0 | 0.0 | 0.00 | 0.00 | 0.00 | 1 | 1012.6 |
| 20260510101015 | 57 | 211 | 0.0 | 0.0 | 0.00 | 0.00 | 0.00 | 1 | 1012.6 |
| 20260510100513 | 58 | 211 | 0.0 | 0.0 | 0.00 | 0.00 | 0.00 | 1 | 1012.5 |
| 20260510100012 | 58 | 211 | 0.0 | 0.0 | 0.00 | 0.00 | 0.00 | 1 | 1012.3 |
| 20260510095511 | 58 | 211 | 0.0 | 0.0 | 0.00 | 0.00 | 0.00 | 1 | 1012.3 |
| 20260510095008 | 58 | 211 | 0.0 | 0.0 | 0.00 | 0.00 | 0.00 | 1 | 1012.3 |
| 20260510094507 | 58 | 211 | 0.0 | 0.0 | 0.00 | 0.00 | 0.00 | 1 | 1012.2 |
| 20260510094006 | 58 | 211 | 0.0 | 0.0 | 0.00 | 0.00 | 0.00 | 1 | 1012.1 |
| 20260510093505 | 59 | 211 | 0.0 | 0.0 | 0.00 | 0.00 | 0.00 | 1 | 1012.2 |
| 20260510093004 | 59 | 211 | 0.0 | 0.0 | 0.00 | 0.00 | 0.00 | 1 | 1012.2 |
| 20260510092503 | 59 | 211 | 0.0 | 0.0 | 0.00 | 0.00 | 0.00 | 1 | 1012.1 |
| 20260510092101 | 59 | 211 | 0.0 | 0.0 | 0.00 | 0.00 | 0.00 | 1 | 1012.1 |
| 20260510091600 | 59 | 211 | 0.0 | 0.0 | 0.00 | 0.00 | 0.00 | 1 | 1012.0 |
| 20260510091057 | 59 | 211 | 0.0 | 0.0 | 0.00 | 0.00 | 0.00 | 1 | 1012.1 |
| 20260510090556 | 59 | 211 | 0.0 | 0.0 | 0.00 | 0.00 | 0.00 | 1 | 1011.9 |
| 20260510090055 | 60 | 211 | 0.0 | 0.0 | 0.00 | 0.00 | 0.00 | 1 | 1011.8 |
| 20260510085555 | 60 | 211 | 0.0 | 0.0 | 0.00 | 0.00 | 0.00 | 1 | 1011.7 |
| 20260510085051 | 60 | 211 | 0.0 | 0.0 | 0.00 | 0.00 | 0.00 | 1 | 1011.8 |
| 20260510084549 | 60 | 211 | 0.0 | 0.0 | 0.00 | 0.00 | 0.00 | 1 | 1011.8 |
| 20260510084048 | 60 | 211 | 0.0 | 0.0 | 0.00 | 0.00 | 0.00 | 1 | 1011.8 |
| 20260510083547 | 61 | 211 | 0.0 | 0.0 | 0.00 | 0.00 | 0.00 | 1 | 1011.7 |
| 20260510083053 | 61 | 211 | 0.0 | 0.0 | 0.00 | 0.00 | 0.00 | 1 | 1011.7 |
| 20260510082544 | 61 | 211 | 0.0 | 0.0 | 0.00 | 0.00 | 0.00 | 1 | 1011.7 |
| 20260510082042 | 61 | 211 | 0.0 | 0.0 | 0.00 | 0.00 | 0.00 | 1 | 1011.7 |
| 20260510081546 | 61 | 211 | 0.0 | 0.0 | 0.00 | 0.00 | 0.00 | 1 | 1011.7 |
| 20260510081041 | 62 | 211 | 0.0 | 0.0 | 0.00 | 0.00 | 0.00 | 1 | 1011.6 |
| 20260510080539 | 62 | 211 | 0.0 | 0.0 | 0.00 | 0.00 | 0.00 | 1 | 1011.7 |
| 20260510080043 | 62 | 211 | 0.0 | 0.0 | 0.00 | 0.00 | 0.00 | 1 | 1011.7 |
| 20260510075541 | 62 | 211 | 0.0 | 0.0 | 0.00 | 0.00 | 0.00 | 1 | 1011.6 |
| 20260510075034 | 62 | 211 | 0.0 | 0.0 | 0.00 | 0.00 | 0.00 | 1 | 1011.5 |
| 20260510074534 | 62 | 211 | 0.0 | 0.0 | 0.00 | 0.00 | 0.00 | 1 | 1011.5 |
| 20260510074032 | 62 | 211 | 0.0 | 0.0 | 0.00 | 0.00 | 0.00 | 1 | 1011.4 |
| 20260510073530 | 63 | 211 | 0.0 | 0.0 | 0.00 | 0.00 | 0.00 | 1 | 1011.4 |
| 20260510073029 | 63 | 211 | 0.0 | 0.0 | 0.00 | 0.00 | 0.00 | 1 | 1011.4 |
| 20260510072527 | 63 | 211 | 0.0 | 0.0 | 0.00 | 0.00 | 0.00 | 1 | 1011.4 |
| 20260510072030 | 63 | 211 | 0.0 | 0.0 | 0.00 | 0.00 | 0.00 | 1 | 1011.4 |
| 20260510071535 | 63 | 211 | 0.0 | 0.0 | 0.00 | 0.00 | 0.00 | 1 | 1011.4 |
| 20260510071023 | 63 | 211 | 0.0 | 0.0 | 0.00 | 0.00 | 0.00 | 1 | 1011.4 |
| 20260510070521 | 63 | 211 | 0.0 | 0.0 | 0.00 | 0.00 | 0.00 | 1 | 1011.3 |
| 20260510070020 | 63 | 211 | 0.0 | 0.0 | 0.00 | 0.00 | 0.00 | 1 | 1011.3 |
| 20260510065519 | 64 | 211 | 0.0 | 0.0 | 0.00 | 0.00 | 0.00 | 1 | 1011.4 |
| 20260510065017 | 64 | 211 | 0.0 | 0.0 | 0.00 | 0.00 | 0.00 | 1 | 1011.4 |
| 20260510064515 | 64 | 211 | 0.0 | 0.0 | 0.00 | 0.00 | 0.00 | 1 | 1011.3 |
| 20260510064014 | 64 | 211 | 0.0 | 0.0 | 0.00 | 0.00 | 0.00 | 1 | 1011.3 |
| 20260510063516 | 64 | 211 | 0.0 | 0.0 | 0.00 | 0.00 | 0.00 | 1 | 1011.4 |
| 20260510063011 | 64 | 211 | 0.0 | 0.0 | 0.00 | 0.00 | 0.00 | 1 | 1011.5 |
| 20260510062510 | 64 | 211 | 0.0 | 0.0 | 0.00 | 0.00 | 0.00 | 1 | 1011.5 |
| 20260510062008 | 64 | 211 | 0.0 | 0.0 | 0.00 | 0.00 | 0.00 | 1 | 1011.4 |
| 20260510061507 | 64 | 211 | 0.0 | 0.0 | 0.00 | 0.00 | 0.00 | 1 | 1011.4 |
| 20260510061005 | 65 | 211 | 0.0 | 0.0 | 0.00 | 0.00 | 0.00 | 1 | 1011.5 |
| 20260510060504 | 65 | 211 | 0.0 | 2.0 | 0.00 | 0.00 | 0.00 | 1 | 1011.6 |
| 20260510060002 | 65 | 211 | 0.0 | 2.0 | 0.00 | 0.00 | 0.00 | 1 | 1011.5 |
| 20260510055501 | 65 | 211 | 0.0 | 2.0 | 0.00 | 0.00 | 0.00 | 1 | 1011.5 |
| 20260510055059 | 65 | 211 | 0.0 | 2.0 | 0.00 | 0.00 | 0.00 | 1 | 1011.3 |
| 20260510054558 | 65 | 211 | 0.0 | 2.0 | 0.00 | 0.00 | 0.00 | 1 | 1011.5 |
| 20260510054056 | 65 | 211 | 0.0 | 3.0 | 0.00 | 0.00 | 0.00 | 1 | 1011.6 |
| 20260510053555 | 65 | 211 | 0.0 | 3.0 | 0.00 | 0.00 | 0.00 | 1 | 1011.6 |
| 20260510053054 | 65 | 211 | 0.0 | 3.0 | 0.00 | 0.00 | 0.00 | 1 | 1011.6 |
| 20260510052553 | 65 | 211 | 1.0 | 3.0 | 0.00 | 0.00 | 0.00 | 1 | 1011.5 |
| 20260510052054 | 66 | 211 | 1.0 | 3.0 | 0.00 | 0.00 | 0.00 | 1 | 1011.6 |
| 20260510051550 | 66 | 211 | 1.0 | 3.0 | 0.00 | 0.00 | 0.00 | 1 | 1011.5 |
| 20260510051048 | 66 | 211 | 0.0 | 3.0 | 0.00 | 0.00 | 0.00 | 1 | 1011.5 |
| 20260510050546 | 66 | 211 | 0.0 | 0.0 | 0.00 | 0.00 | 0.00 | 1 | 1011.6 |
| 20260510050045 | 66 | 211 | 0.0 | 0.0 | 0.00 | 0.00 | 0.00 | 1 | 1011.6 |
| 20260510045544 | 66 | 211 | 0.0 | 1.0 | 0.00 | 0.00 | 0.00 | 1 | 1011.5 |
| 20260510045042 | 66 | 211 | 0.0 | 3.0 | 0.00 | 0.00 | 0.00 | 1 | 1011.6 |
| 20260510044544 | 66 | 211 | 1.0 | 3.0 | 0.00 | 0.00 | 0.00 | 1 | 1011.7 |
| 20260510044042 | 65 | 211 | 1.0 | 3.0 | 0.00 | 0.00 | 0.00 | 1 | 1011.7 |
| 20260510043538 | 65 | 211 | 1.0 | 3.0 | 0.00 | 0.00 | 0.00 | 1 | 1011.6 |
| 20260510043036 | 65 | 211 | 1.0 | 4.0 | 0.00 | 0.00 | 0.00 | 1 | 1011.7 |
| 20260510042535 | 65 | 209 | 1.0 | 3.0 | 0.00 | 0.00 | 0.00 | 1 | 1011.5 |
| 20260510042034 | 65 | 210 | 1.0 | 3.0 | 0.00 | 0.00 | 0.00 | 1 | 1011.5 |
| 20260510041532 | 65 | 131 | 0.0 | 0.0 | 0.00 | 0.00 | 0.00 | 1 | 1011.5 |
| 20260510041030 | 64 | 131 | 0.0 | 0.0 | 0.00 | 0.00 | 0.00 | 1 | 1011.5 |
| 20260510040529 | 64 | 131 | 0.0 | 0.0 | 0.00 | 0.00 | 0.00 | 1 | 1011.5 |
| 20260510040029 | 64 | 131 | 0.0 | 0.0 | 0.00 | 0.00 | 0.00 | 1 | 1011.4 |
| 20260510035527 | 64 | 131 | 0.0 | 0.0 | 0.00 | 0.00 | 0.00 | 1 | 1011.5 |
| 20260510035027 | 64 | 130 | 0.0 | 0.0 | 0.00 | 0.00 | 0.00 | 1 | 1011.5 |
| 20260510034523 | 64 | 130 | 0.0 | 0.0 | 0.00 | 0.00 | 0.00 | 1 | 1011.4 |
| 20260510034022 | 64 | 130 | 0.0 | 0.0 | 0.00 | 0.00 | 0.00 | 1 | 1011.4 |
| 20260510033520 | 64 | 130 | 0.0 | 0.0 | 0.00 | 0.00 | 0.00 | 1 | 1011.4 |
| 20260510033019 | 64 | 130 | 0.0 | 0.0 | 0.00 | 0.00 | 0.00 | 1 | 1011.4 |
| 20260510032517 | 64 | 130 | 0.0 | 0.0 | 0.00 | 0.00 | 0.00 | 1 | 1011.4 |
| 20260510032016 | 64 | 130 | 0.0 | 0.0 | 0.00 | 0.00 | 0.00 | 1 | 1011.3 |
| 20260510031532 | 64 | 130 | 0.0 | 0.0 | 0.00 | 0.00 | 0.00 | 1 | 1011.4 |
| 20260510031012 | 64 | 130 | 0.0 | 0.0 | 0.00 | 0.00 | 0.00 | 1 | 1011.3 |
| 20260510030511 | 64 | 130 | 0.0 | 0.0 | 0.00 | 0.00 | 0.00 | 1 | 1011.2 |
| 20260510030012 | 64 | 130 | 0.0 | 0.0 | 0.00 | 0.00 | 0.00 | 1 | 1011.3 |
| 20260510025509 | 64 | 130 | 0.0 | 0.0 | 0.00 | 0.00 | 0.00 | 1 | 1011.2 |
| 20260510025007 | 64 | 130 | 0.0 | 0.0 | 0.00 | 0.00 | 0.00 | 1 | 1011.2 |
| 20260510024506 | 64 | 130 | 0.0 | 0.0 | 0.00 | 0.00 | 0.00 | 1 | 1011.1 |
| 20260510024004 | 64 | 130 | 0.0 | 0.0 | 0.00 | 0.00 | 0.00 | 1 | 1011.1 |
| 20260510023502 | 64 | 130 | 0.0 | 0.0 | 0.00 | 0.00 | 0.00 | 1 | 1011.0 |
| 20260510023001 | 64 | 130 | 0.0 | 0.0 | 0.00 | 0.00 | 0.00 | 1 | 1011.1 |
| 20260510022601 | 64 | 130 | 0.0 | 0.0 | 0.00 | 0.00 | 0.00 | 1 | 1011.0 |
| 20260510022058 | 64 | 130 | 0.0 | 0.0 | 0.00 | 0.00 | 0.00 | 1 | 1010.9 |
| 20260510021557 | 65 | 130 | 0.0 | 0.0 | 0.00 | 0.00 | 0.00 | 1 | 1010.9 |
| 20260510021057 | 65 | 130 | 0.0 | 0.0 | 0.00 | 0.00 | 0.00 | 4 | 1010.8 |
| 20260510020554 | 65 | 130 | 0.0 | 0.0 | 0.00 | 0.00 | 0.00 | 8 | 1010.7 |
| 20260510020053 | 65 | 130 | 0.0 | 0.0 | 0.00 | 0.00 | 0.00 | 10 | 1010.7 |
| 20260510015552 | 65 | 130 | 0.0 | 0.0 | 0.00 | 0.00 | 0.00 | 13 | 1010.5 |
| 20260510015049 | 65 | 130 | 0.0 | 0.0 | 0.00 | 0.00 | 0.00 | 15 | 1010.4 |
| 20260510014548 | 66 | 130 | 0.0 | 0.0 | 0.00 | 0.00 | 0.00 | 18 | 1010.4 |
| 20260510014048 | 66 | 130 | 0.0 | 0.0 | 0.00 | 0.00 | 0.00 | 20 | 1010.3 |
| 20260510013544 | 66 | 130 | 0.0 | 0.0 | 0.00 | 0.00 | 0.00 | 23 | 1010.2 |
| 20260510013044 | 67 | 130 | 0.0 | 0.0 | 0.00 | 0.00 | 0.00 | 26 | 1010.3 |
| 20260510012542 | 67 | 130 | 0.0 | 0.0 | 0.00 | 0.00 | 0.00 | 28 | 1010.3 |
| 20260510012041 | 67 | 130 | 0.0 | 0.0 | 0.00 | 0.00 | 0.00 | 30 | 1010.2 |
| 20260510011551 | 67 | 130 | 0.0 | 0.0 | 0.00 | 0.00 | 0.00 | 32 | 1010.1 |
| 20260510011037 | 68 | 130 | 0.0 | 0.0 | 0.00 | 0.00 | 0.00 | 34 | 1010.1 |
| 20260510010536 | 68 | 130 | 0.0 | 0.0 | 0.00 | 0.00 | 0.00 | 36 | 1010.0 |
| 20260510010036 | 68 | 130 | 0.0 | 0.0 | 0.00 | 0.00 | 0.00 | 39 | 1010.0 |
| 20260510005534 | 69 | 130 | 0.0 | 0.0 | 0.00 | 0.00 | 0.00 | 41 | 1010.0 |
| 20260510005032 | 69 | 130 | 0.0 | 0.0 | 0.00 | 0.00 | 0.00 | 43 | 1009.9 |
| 20260510004531 | 69 | 130 | 0.0 | 0.0 | 0.00 | 0.00 | 0.00 | 46 | 1009.9 |
| 20260510004028 | 70 | 130 | 0.0 | 0.0 | 0.00 | 0.00 | 0.00 | 47 | 1009.8 |
| 20260510003527 | 70 | 130 | 0.0 | 0.0 | 0.00 | 0.00 | 0.00 | 49 | 1009.7 |
| 20260510003052 | 70 | 130 | 0.0 | 0.0 | 0.00 | 0.00 | 0.00 | 49 | 1009.7 |
| 20260510002527 | 71 | 130 | 0.0 | 0.0 | 0.00 | 0.00 | 0.00 | 50 | 1009.7 |
| 20260510002022 | 71 | 130 | 0.0 | 0.0 | 0.00 | 0.00 | 0.00 | 51 | 1009.6 |
| 20260510001523 | 71 | 130 | 0.0 | 0.0 | 0.00 | 0.00 | 0.00 | 51 | 1009.5 |
| 20260510001020 | 72 | 130 | 0.0 | 0.0 | 0.00 | 0.00 | 0.00 | 52 | 1009.5 |
| 20260510000519 | 72 | 130 | 0.0 | 0.0 | 0.00 | 0.00 | 0.00 | 52 | 1009.4 |
| 20260510000017 | 72 | 130 | 0.0 | 0.0 | 0.00 | 0.00 | 0.00 | 52 | 1009.3 |
| 20260509235515 | 72 | 130 | 0.0 | 0.0 | 0.00 | 0.00 | 0.00 | 52 | 1009.3 |
| 20260509235014 | 73 | 130 | 0.0 | 0.0 | 0.00 | 0.00 | 0.00 | 52 | 1009.2 |
| 20260509234522 | 73 | 130 | 0.0 | 0.0 | 0.00 | 0.00 | 0.00 | 52 | 1009.1 |
| 20260509234010 | 73 | 130 | 0.0 | 0.0 | 0.00 | 0.00 | 0.00 | 52 | 1009.1 |
| 20260509233511 | 73 | 130 | 0.0 | 0.0 | 0.00 | 0.00 | 0.00 | 52 | 1009.2 |
| 20260509233012 | 73 | 130 | 0.0 | 0.0 | 0.00 | 0.00 | 0.00 | 52 | 1009.2 |
| 20260509232507 | 73 | 130 | 0.0 | 0.0 | 0.00 | 0.00 | 0.00 | 52 | 1009.2 |
| 20260509232006 | 73 | 130 | 0.0 | 0.0 | 0.00 | 0.00 | 0.00 | 51 | 1009.2 |
| 20260509231504 | 74 | 129 | 0.0 | 0.0 | 0.00 | 0.00 | 0.00 | 51 | 1009.2 |
| 20260509231002 | 74 | 129 | 0.0 | 0.0 | 0.00 | 0.00 | 0.00 | 52 | 1009.1 |
| 20260509230601 | 74 | 129 | 0.0 | 0.0 | 0.00 | 0.00 | 0.00 | 51 | 1009.1 |
| 20260509230109 | 74 | 129 | 0.0 | 0.0 | 0.00 | 0.00 | 0.00 | 51 | 1009.1 |
| 20260509225558 | 74 | 129 | 0.0 | 0.0 | 0.00 | 0.00 | 0.00 | 51 | 1009.2 |
| 20260509225056 | 74 | 129 | 0.0 | 3.0 | 0.00 | 0.00 | 0.00 | 51 | 1009.0 |
| 20260509224555 | 74 | 129 | 0.0 | 3.0 | 0.00 | 0.00 | 0.00 | 51 | 1008.9 |
| 20260509224054 | 74 | 158 | 0.0 | 2.0 | 0.00 | 0.00 | 0.00 | 50 | 1009.0 |
| 20260509223552 | 74 | 213 | 0.0 | 2.0 | 0.00 | 0.00 | 0.00 | 50 | 1009.0 |
| 20260509223051 | 74 | 213 | 0.0 | 2.0 | 0.00 | 0.00 | 0.00 | 50 | 1009.0 |
| 20260509222549 | 74 | 213 | 0.0 | 0.0 | 0.00 | 0.00 | 0.00 | 50 | 1009.0 |
| 20260509222047 | 74 | 213 | 0.0 | 0.0 | 0.00 | 0.00 | 0.00 | 49 | 1009.0 |
| 20260509221546 | 75 | 213 | 0.0 | 3.0 | 0.00 | 0.00 | 0.00 | 49 | 1009.1 |
| 20260509221045 | 75 | 213 | 0.0 | 3.0 | 0.00 | 0.00 | 0.00 | 48 | 1009.0 |
| 20260509220543 | 75 | 213 | 0.0 | 3.0 | 0.00 | 0.00 | 0.00 | 49 | 1009.0 |
| 20260509220042 | 74 | 194 | 1.0 | 4.0 | 0.00 | 0.00 | 0.00 | 50 | 1009.0 |
| 20260509215543 | 74 | 196 | 0.0 | 4.0 | 0.00 | 0.00 | 0.00 | 50 | 1008.9 |
| 20260509215040 | 74 | 161 | 0.0 | 3.0 | 0.00 | 0.00 | 0.00 | 51 | 1008.9 |
| 20260509214537 | 74 | 115 | 0.0 | 3.0 | 0.00 | 0.00 | 0.00 | 51 | 1008.8 |
| 20260509214039 | 74 | 329 | 0.0 | 2.0 | 0.00 | 0.00 | 0.00 | 52 | 1008.7 |
| 20260509213534 | 74 | 329 | 0.0 | 3.0 | 0.00 | 0.00 | 0.00 | 52 | 1008.8 |
| 20260509213035 | 74 | 329 | 0.0 | 3.0 | 0.00 | 0.00 | 0.00 | 51 | 1008.8 |
| 20260509212535 | 74 | 277 | 0.0 | 2.0 | 0.00 | 0.00 | 0.00 | 50 | 1008.8 |
| 20260509212032 | 74 | 277 | 0.0 | 5.0 | 0.00 | 0.00 | 0.00 | 50 | 1008.8 |
| 20260509211528 | 75 | 277 | 1.0 | 5.0 | 0.00 | 0.00 | 0.00 | 49 | 1008.9 |
| 20260509211027 | 75 | 209 | 0.0 | 4.0 | 0.00 | 0.00 | 0.00 | 50 | 1008.8 |
| 20260509210526 | 75 | 209 | 1.0 | 4.0 | 0.00 | 0.00 | 0.00 | 49 | 1008.8 |
| 20260509210025 | 75 | 209 | 1.0 | 4.0 | 0.00 | 0.00 | 0.00 | 49 | 1008.9 |
| 20260509205522 | 75 | 72 | 1.0 | 4.0 | 0.00 | 0.00 | 0.00 | 49 | 1008.9 |
| 20260509205021 | 75 | 172 | 2.0 | 4.0 | 0.00 | 0.00 | 0.00 | 49 | 1008.7 |
| 20260509204519 | 76 | 234 | 1.0 | 6.0 | 0.00 | 0.00 | 0.00 | 49 | 1008.6 |
| 20260509204018 | 76 | 144 | 2.0 | 8.0 | 0.00 | 0.00 | 0.00 | 48 | 1008.6 |
| 20260509203516 | 76 | 192 | 2.0 | 6.0 | 0.00 | 0.00 | 0.00 | 48 | 1008.5 |
| 20260509203020 | 76 | 195 | 2.0 | 7.0 | 0.00 | 0.00 | 0.00 | 49 | 1008.5 |
| 20260509202513 | 76 | 163 | 1.0 | 10.0 | 0.00 | 0.00 | 0.00 | 48 | 1008.6 |
| 20260509202012 | 77 | 201 | 2.0 | 10.0 | 0.00 | 0.00 | 0.00 | 48 | 1008.6 |
| 20260509201511 | 77 | 221 | 1.0 | 3.0 | 0.00 | 0.00 | 0.00 | 47 | 1008.8 |
| 20260509201009 | 77 | 128 | 1.0 | 6.0 | 0.00 | 0.00 | 0.00 | 46 | 1008.9 |
| 20260509200508 | 78 | 145 | 1.0 | 6.0 | 0.00 | 0.00 | 0.00 | 45 | 1009.0 |
| 20260509200008 | 78 | 187 | 2.0 | 4.0 | 0.00 | 0.00 | 0.00 | 45 | 1009.0 |
| 20260509195508 | 78 | 200 | 1.0 | 10.0 | 0.00 | 0.00 | 0.00 | 47 | 1009.0 |
| 20260509195003 | 77 | 167 | 2.0 | 10.0 | 0.00 | 0.00 | 0.00 | 46 | 1009.1 |
| 20260509194509 | 77 | 178 | 1.0 | 7.0 | 0.00 | 0.00 | 0.00 | 47 | 1009.2 |
| 20260509194100 | 77 | 163 | 1.0 | 4.0 | 0.00 | 0.00 | 0.00 | 47 | 1009.4 |
| 20260509193559 | 77 | 229 | 1.0 | 3.0 | 0.00 | 0.00 | 0.00 | 45 | 1009.4 |
| 20260509193057 | 77 | 229 | 1.0 | 4.0 | 0.00 | 0.00 | 0.00 | 47 | 1009.4 |
| 20260509192556 | 77 | 230 | 1.0 | 6.0 | 0.00 | 0.00 | 0.00 | 47 | 1009.4 |
| 20260509192055 | 76 | 165 | 1.0 | 6.0 | 0.00 | 0.00 | 0.00 | 46 | 1009.5 |
| 20260509191554 | 76 | 190 | 1.0 | 3.0 | 0.00 | 0.00 | 0.00 | 46 | 1009.5 |
| 20260509191054 | 77 | 146 | 1.0 | 4.0 | 0.00 | 0.00 | 0.00 | 45 | 1009.4 |
| 20260509190554 | 77 | 199 | 2.0 | 4.0 | 0.00 | 0.00 | 0.00 | 45 | 1009.5 |
| 20260509190049 | 78 | 249 | 1.0 | 4.0 | 0.00 | 0.00 | 0.00 | 42 | 1009.6 |
| 20260509185548 | 79 | 248 | 1.0 | 4.0 | 0.00 | 0.00 | 0.00 | 42 | 1009.7 |
| 20260509185045 | 80 | 252 | 1.0 | 6.0 | 0.00 | 0.00 | 0.00 | 42 | 1009.6 |
| 20260509184545 | 79 | 260 | 1.0 | 6.0 | 0.00 | 0.00 | 0.00 | 45 | 1009.8 |
| 20260509184043 | 79 | 225 | 2.0 | 5.0 | 0.00 | 0.00 | 0.00 | 44 | 1009.7 |
| 20260509183545 | 78 | 219 | 1.0 | 5.0 | 0.00 | 0.00 | 0.00 | 43 | 1009.9 |
| 20260509183057 | 78 | 207 | 1.0 | 3.0 | 0.00 | 0.00 | 0.00 | 46 | 1009.9 |
| 20260509182538 | 77 | 207 | 1.0 | 4.0 | 0.00 | 0.00 | 0.00 | 46 | 1010.0 |
| 20260509182041 | 77 | 207 | 1.0 | 5.0 | 0.00 | 0.00 | 0.00 | 44 | 1010.1 |
| 20260509181544 | 78 | 227 | 2.0 | 5.0 | 0.00 | 0.00 | 0.00 | 44 | 1010.1 |
| 20260509181034 | 78 | 118 | 1.0 | 5.0 | 0.00 | 0.00 | 0.00 | 44 | 1010.3 |
| 20260509180532 | 78 | 182 | 2.0 | 5.0 | 0.00 | 0.00 | 0.00 | 43 | 1010.2 |
| 20260509180034 | 78 | 224 | 1.0 | 6.0 | 0.00 | 0.00 | 0.00 | 44 | 1010.1 |
| 20260509175531 | 78 | 155 | 1.0 | 8.0 | 0.00 | 0.00 | 0.00 | 45 | 1010.1 |
| 20260509175029 | 78 | 157 | 2.0 | 8.0 | 0.00 | 0.00 | 0.00 | 43 | 1010.4 |
| 20260509174526 | 78 | 313 | 1.0 | 4.0 | 0.00 | 0.00 | 0.00 | 46 | 1010.5 |
| 20260509174025 | 78 | 286 | 1.0 | 5.0 | 0.00 | 0.00 | 0.00 | 44 | 1010.5 |
| 20260509173524 | 78 | 302 | 2.0 | 8.0 | 0.00 | 0.00 | 0.00 | 46 | 1010.3 |
| 20260509173025 | 78 | 150 | 2.0 | 8.0 | 0.00 | 0.00 | 0.00 | 45 | 1010.5 |
| 20260509172521 | 78 | 242 | 1.0 | 4.0 | 0.00 | 0.00 | 0.00 | 46 | 1010.4 |
| 20260509172020 | 78 | 135 | 1.0 | 4.0 | 0.00 | 0.00 | 0.00 | 44 | 1010.4 |
| 20260509171520 | 78 | 136 | 2.0 | 5.0 | 0.00 | 0.00 | 0.00 | 46 | 1010.5 |
| 20260509171016 | 77 | 238 | 1.0 | 6.0 | 0.00 | 0.00 | 0.00 | 47 | 1010.6 |
| 20260509170515 | 77 | 154 | 0.0 | 7.0 | 0.00 | 0.00 | 0.00 | 47 | 1010.6 |
| 20260509170014 | 76 | 220 | 1.0 | 7.0 | 0.00 | 0.00 | 0.00 | 46 | 1010.9 |
| 20260509165511 | 76 | 178 | 2.0 | 5.0 | 0.00 | 0.00 | 0.00 | 46 | 1010.8 |
| 20260509165010 | 76 | 257 | 2.0 | 5.0 | 0.00 | 0.00 | 0.00 | 48 | 1010.9 |
| 20260509164511 | 75 | 168 | 0.0 | 8.0 | 0.00 | 0.00 | 0.00 | 49 | 1011.0 |
| 20260509164007 | 75 | 207 | 3.0 | 9.0 | 0.00 | 0.00 | 0.00 | 48 | 1011.3 |
| 20260509163508 | 75 | 182 | 1.0 | 9.0 | 0.00 | 0.00 | 0.00 | 48 | 1011.1 |
| 20260509163004 | 75 | 84 | 2.0 | 8.0 | 0.00 | 0.00 | 0.00 | 47 | 1011.0 |
| 20260509162503 | 75 | 236 | 1.0 | 5.0 | 0.00 | 0.00 | 0.00 | 49 | 1011.0 |
| 20260509162102 | 75 | 239 | 1.0 | 5.0 | 0.00 | 0.00 | 0.00 | 49 | 1011.0 |
| 20260509161600 | 75 | 208 | 1.0 | 4.0 | 0.00 | 0.00 | 0.00 | 50 | 1010.9 |
| 20260509161058 | 74 | 206 | 1.0 | 5.0 | 0.00 | 0.00 | 0.00 | 49 | 1011.2 |
| 20260509160557 | 74 | 213 | 1.0 | 9.0 | 0.00 | 0.00 | 0.00 | 50 | 1011.3 |
| 20260509160058 | 73 | 232 | 2.0 | 9.0 | 0.00 | 0.00 | 0.00 | 50 | 1011.4 |
| 20260509155554 | 73 | 227 | 2.0 | 6.0 | 0.00 | 0.00 | 0.00 | 50 | 1011.4 |
| 20260509155053 | 73 | 44 | 2.0 | 7.0 | 0.00 | 0.00 | 0.00 | 50 | 1011.5 |
| 20260509154555 | 73 | 178 | 2.0 | 6.0 | 0.00 | 0.00 | 0.00 | 50 | 1011.7 |
| 20260509154050 | 73 | 214 | 1.0 | 5.0 | 0.00 | 0.00 | 0.00 | 50 | 1012.1 |
| 20260509153548 | 73 | 202 | 0.0 | 7.0 | 0.00 | 0.00 | 0.00 | 51 | 1012.0 |
| 20260509153047 | 73 | 219 | 2.0 | 7.0 | 0.00 | 0.00 | 0.00 | 50 | 1011.8 |
| 20260509152549 | 73 | 197 | 2.0 | 7.0 | 0.00 | 0.00 | 0.00 | 50 | 1011.9 |
| 20260509152044 | 73 | 154 | 2.0 | 5.0 | 0.00 | 0.00 | 0.00 | 50 | 1011.9 |
| 20260509151544 | 73 | 105 | 2.0 | 5.0 | 0.00 | 0.00 | 0.00 | 50 | 1012.2 |
| 20260509151041 | 72 | 142 | 2.0 | 6.0 | 0.00 | 0.00 | 0.00 | 49 | 1012.3 |
| 20260509150540 | 72 | 189 | 1.0 | 5.0 | 0.00 | 0.00 | 0.00 | 49 | 1012.2 |
| 20260509150039 | 71 | 200 | 1.0 | 7.0 | 0.00 | 0.00 | 0.00 | 48 | 1012.3 |
| 20260509145537 | 71 | 227 | 2.0 | 9.0 | 0.00 | 0.00 | 0.00 | 47 | 1012.4 |
| 20260509145039 | 70 | 263 | 2.0 | 9.0 | 0.00 | 0.00 | 0.00 | 48 | 1012.3 |
| 20260509144538 | 70 | 234 | 0.0 | 6.0 | 0.00 | 0.00 | 0.00 | 44 | 1012.4 |
| 20260509144034 | 70 | 223 | 2.0 | 8.0 | 0.00 | 0.00 | 0.00 | 42 | 1012.7 |
| 20260509143531 | 69 | 74 | 2.0 | 8.0 | 0.00 | 0.00 | 0.00 | 43 | 1012.8 |
| 20260509143030 | 69 | 224 | 2.0 | 4.0 | 0.00 | 0.00 | 0.00 | 39 | 1013.1 |
| 20260509142527 | 69 | 221 | 1.0 | 4.0 | 0.00 | 0.00 | 0.00 | 41 | 1013.2 |